N1157K KFLL-KFLL

Flight info

Callsign N1157K
Flight time 0h 9m
Altitude VFR
Route PATTERN WORK
Aircraft M20P/L-DOV/C

Departure

Time 2026-05-05 18:31
Airport Fort Lauderdale Hollywood International Airport (KFLL)

Arrival

Time 2026-05-05 18:40
Airport Fort Lauderdale Hollywood International Airport (KFLL)
Time Latitude Longitude Altitude Speed Heading
2026-05-05 18:27 26.07910 -80.15611 10 ft 0 kts
2026-05-05 18:28 26.07910 -80.15637 10 ft 6 kts 199°
2026-05-05 18:28 26.07879 -80.15679 9 ft 2 kts 227°
2026-05-05 18:28 26.07823 -80.15703 8 ft 13 kts 222°
2026-05-05 18:29 26.07814 -80.15817 9 ft 18 kts 276°
2026-05-05 18:29 26.07816 -80.15990 12 ft 25 kts 269°
2026-05-05 18:29 26.07814 -80.16191 13 ft 29 kts 269°
2026-05-05 18:29 26.07806 -80.16424 12 ft 32 kts 268°
2026-05-05 18:30 26.07797 -80.16622 11 ft 10 kts 244°
2026-05-05 18:30 26.07785 -80.16632 11 ft 12 kts 186°
2026-05-05 18:30 26.07693 -80.16506 12 ft 38 kts 92°
2026-05-05 18:30 26.07692 -80.16012 52 ft 86 kts 91°
2026-05-05 18:31 26.07677 -80.15265 299 ft 106 kts 92°
2026-05-05 18:31 26.07647 -80.14433 698 ft 116 kts 91°
2026-05-05 18:31 26.07607 -80.13443 862 ft 139 kts 91°
2026-05-05 18:31 26.07573 -80.12335 1015 ft 145 kts 77°
2026-05-05 18:32 26.08337 -80.11655 1077 ft 164 kts
2026-05-05 18:32 26.09450 -80.11950 1148 ft 177 kts 318°
2026-05-05 18:32 26.09861 -80.13232 1241 ft 184 kts 271°
2026-05-05 18:32 26.09823 -80.14598 1596 ft 162 kts 271°
2026-05-05 18:33 26.09816 -80.15735 1506 ft 137 kts 271°
2026-05-05 18:33 26.09828 -80.16737 1443 ft 120 kts 272°
2026-05-05 18:33 26.09843 -80.17599 1365 ft 108 kts 272°
2026-05-05 18:33 26.09708 -80.18375 1333 ft 105 kts 225°
2026-05-05 18:34 26.08994 -80.18652 1075 ft 110 kts 179°
2026-05-05 18:34 26.08266 -80.18651 925 ft 102 kts 162°
2026-05-05 18:34 26.07811 -80.18106 619 ft 96 kts 108°
2026-05-05 18:34 26.07704 -80.17437 296 ft 81 kts 91°
2026-05-05 18:35 26.07701 -80.16864 138 ft 69 kts 90°
2026-05-05 18:35 26.07696 -80.16373 20 ft 55 kts 91°
2026-05-05 18:35 26.07691 -80.15977 13 ft 67 kts 90°
2026-05-05 18:35 26.07701 -80.15359 172 ft 89 kts 89°
2026-05-05 18:36 26.07715 -80.14642 385 ft 98 kts 93°
2026-05-05 18:36 26.07689 -80.13863 657 ft 101 kts 93°
2026-05-05 18:36 26.07619 -80.13088 925 ft 104 kts 91°
2026-05-05 18:36 26.07539 -80.12233 1112 ft 112 kts 84°
2026-05-05 18:37 26.07976 -80.11524 1117 ft 129 kts 23°
2026-05-05 18:37 26.08904 -80.11552 1185 ft 146 kts 355°
2026-05-05 18:37 26.09772 -80.12220 1215 ft 177 kts 287°
2026-05-05 18:37 26.09772 -80.13626 1426 ft 182 kts 271°
2026-05-05 18:38 26.09843 -80.15014 1657 ft 181 kts 276°
2026-05-05 18:38 26.09893 -80.16213 1341 ft 137 kts 270°
2026-05-05 18:38 26.09853 -80.17254 909 ft 134 kts 270°
2026-05-05 18:38 26.09808 -80.18304 711 ft 131 kts 266°
2026-05-05 18:39 26.09435 -80.19098 634 ft 117 kts 193°
2026-05-05 18:39 26.08724 -80.19207 690 ft 95 kts 179°
2026-05-05 18:39 26.08086 -80.19122 708 ft 89 kts 137°
2026-05-05 18:39 26.07782 -80.18546 519 ft 87 kts 99°
2026-05-05 18:40 26.07718 -80.17894 392 ft 83 kts 96°
2026-05-05 18:40 26.07711 -80.17264 214 ft 84 kts 102°
2026-05-05 18:40 26.07699 -80.16645 83 ft 70 kts 95°
2026-05-05 18:40 26.07696 -80.16186 14 ft 47 kts 92°
2026-05-05 18:41 26.07690 -80.15736 28 ft 81 kts 89°
2026-05-05 18:41 26.07679 -80.15032 251 ft 98 kts 94°
2026-05-05 18:41 26.07654 -80.14241 442 ft 106 kts 94°
2026-05-05 18:41 26.07604 -80.13428 733 ft 102 kts 92°
2026-05-05 18:42 26.07540 -80.12547 939 ft 125 kts 78°
2026-05-05 18:42 26.08290 -80.12080 1005 ft 155 kts
2026-05-05 18:42 26.09119 -80.12852 995 ft 188 kts 285°
2026-05-05 18:42 26.09165 -80.14319 1135 ft 187 kts 272°
2026-05-05 18:43 26.09213 -80.15696 1207 ft 172 kts 275°
2026-05-05 18:43 26.09269 -80.16897 1129 ft 133 kts 274°
2026-05-05 18:43 26.09206 -80.17815 766 ft 113 kts 221°
2026-05-05 18:43 26.08519 -80.18006 587 ft 101 kts 175°
2026-05-05 18:44 26.08068 -80.17965 578 ft 98 kts 150°
2026-05-05 18:44 26.07718 -80.17375 317 ft 87 kts 84°
2026-05-05 18:44 26.07709 -80.16791 127 ft 69 kts 75°
2026-05-05 18:44 26.07698 -80.16264 41 ft 64 kts 91°
2026-05-05 18:45 26.07692 -80.15846 11 ft 65 kts 91°
2026-05-05 18:45 26.07703 -80.15255 276 ft 83 kts 89°
2026-05-05 18:45 26.07738 -80.14565 580 ft 101 kts 88°
2026-05-05 18:45 26.07739 -80.13689 808 ft 123 kts 89°
2026-05-05 18:46 26.07680 -80.12653 941 ft 145 kts 91°
2026-05-05 18:46 26.07702 -80.11480 1042 ft 158 kts 65°
2026-05-05 18:46 26.08665 -80.10934 1030 ft 178 kts 359°
2026-05-05 18:46 26.09828 -80.11383 1129 ft 195 kts 315°
2026-05-05 18:47 26.10197 -80.12879 996 ft 196 kts 270°
2026-05-05 18:47 26.10199 -80.14113 999 ft 137 kts 270°
2026-05-05 18:47 26.10155 -80.15096 1056 ft 120 kts 267°
2026-05-05 18:47 26.10068 -80.16048 997 ft 130 kts 264°
2026-05-05 18:48 26.09872 -80.16960 805 ft 128 kts 235°
2026-05-05 18:48 26.09180 -80.17459 633 ft 111 kts 183°
2026-05-05 18:48 26.08437 -80.17543 616 ft 104 kts 175°
2026-05-05 18:48 26.07844 -80.17239 400 ft 96 kts 119°
2026-05-05 18:49 26.07712 -80.16631 134 ft 71 kts 83°
2026-05-05 18:49 26.07696 -80.16139 13 ft 52 kts 89°
2026-05-05 18:49 26.07690 -80.15641 90 ft 82 kts 90°
2026-05-05 18:49 26.07686 -80.14942 449 ft 92 kts 92°
2026-05-05 18:50 26.07681 -80.14132 667 ft 119 kts 90°
2026-05-05 18:50 26.07647 -80.13168 989 ft 124 kts 90°
2026-05-05 18:50 26.07754 -80.12185 1174 ft 144 kts 60°
2026-05-05 18:50 26.08695 -80.11634 1163 ft 175 kts
2026-05-05 18:51 26.09686 -80.12311 1031 ft 181 kts 297°
2026-05-05 18:51 26.09810 -80.13646 1056 ft 173 kts 268°
2026-05-05 18:51 26.09736 -80.14952 1118 ft 165 kts 268°
2026-05-05 18:51 26.09737 -80.16175 1296 ft 151 kts 275°
2026-05-05 18:52 26.09785 -80.17292 1205 ft 129 kts 273°
2026-05-05 18:52 26.09797 -80.18228 985 ft 117 kts 272°
2026-05-05 18:52 26.09708 -80.19073 930 ft 109 kts 236°
2026-05-05 18:52 26.08998 -80.19489 839 ft 115 kts 182°
2026-05-05 18:53 26.08239 -80.19507 765 ft 106 kts 161°
2026-05-05 18:53 26.07752 -80.19007 535 ft 93 kts 102°
2026-05-05 18:53 26.07717 -80.18321 370 ft 86 kts 91°
2026-05-05 18:53 26.07718 -80.17693 264 ft 79 kts 92°
2026-05-05 18:54 26.07703 -80.17076 134 ft 77 kts 91°
2026-05-05 18:54 26.07697 -80.16514 38 ft 68 kts 91°
2026-05-05 18:54 26.07691 -80.16110 12 ft 28 kts 90°
2026-05-05 18:54 26.07781 -80.16065 12 ft 16 kts
2026-05-05 18:55 26.07844 -80.15943 11 ft 18 kts
2026-05-05 18:55 26.07846 -80.15963 11 ft 0 kts 181°